This is the latest recevied weather packets stored in our database for station/object W0AKO. If no packets are shown the sender has not sent any weather packets the latest 10 day(s).
| Time | Temp. | Humidity | Pressure | Rain* | Wind** | Luminosity | Snow |
|---|---|---|---|---|---|---|---|
| 1777794146 | 17.78° C | 10% | 1016 hPa | 0 mm | - | 0 W/m² | - |
| 1777793843 | 17.78° C | 10% | 1016.4 hPa | 0 mm | - | 0 W/m² | - |
| 1777793541 | 18.33° C | 10% | 1016 hPa | 0 mm | - | 0 W/m² | - |
| 1777793238 | 18.33° C | 10% | 1016 hPa | 0 mm | - | 0 W/m² | - |
| 1777792935 | 17.78° C | 10% | 1016 hPa | 0 mm | - | 0 W/m² | - |
| 1777792632 | 17.78° C | 10% | 1016 hPa | 0 mm | - | 0 W/m² | - |
| 1777792329 | 17.22° C | 10% | 1016.2 hPa | 0 mm | - | 0 W/m² | - |
| 1777792025 | 17.78° C | 10% | 1015.9 hPa | 0 mm | - | 0 W/m² | - |
| 1777791724 | 18.33° C | 10% | 1015.8 hPa | 0 mm | - | 0 W/m² | - |
| 1777791421 | 18.89° C | 10% | 1015.9 hPa | 0 mm | - | 0 W/m² | - |
| 1777791118 | 18.89° C | 10% | 1015.8 hPa | 0 mm | - | 0 W/m² | - |
| 1777790815 | 17.78° C | 10% | 1016 hPa | 0 mm | - | 0 W/m² | - |
| 1777790512 | 17.78° C | 10% | 1016 hPa | 0 mm | - | 0 W/m² | - |
| 1777790209 | 18.33° C | 10% | 1015.8 hPa | 0 mm | - | 0 W/m² | - |
| 1777789908 | 18.89° C | 10% | 1015.8 hPa | 0 mm | - | 0 W/m² | - |
| 1777789606 | 18.89° C | 10% | 1015.6 hPa | 0 mm | - | 0 W/m² | - |
| 1777789304 | 19.44° C | 10% | 1015.7 hPa | 0 mm | - | 0 W/m² | - |
| 1777789001 | 19.44° C | 10% | 1015.6 hPa | 0 mm | - | 0 W/m² | - |
| 1777788697 | 20° C | 10% | 1015.8 hPa | 0 mm | - | 0 W/m² | - |
| 1777788393 | 20° C | 10% | 1015.6 hPa | 0 mm | - | 0 W/m² | - |
| 1777788088 | 20° C | 10% | 1015.5 hPa | 0 mm | - | 0 W/m² | - |
| 1777787783 | 20° C | 10% | 1015.4 hPa | 0 mm | - | 0 W/m² | - |
| 1777787480 | 20.56° C | 10% | 1015.5 hPa | 0 mm | - | 0 W/m² | - |
| 1777787175 | 21.11° C | 10% | 1015.4 hPa | 0 mm | - | 0 W/m² | - |
| 1777786872 | 21.11° C | 10% | 1015.2 hPa | 0 mm | - | 0 W/m² | - |
* Rain latest hour (hover to see other rain measurements)
** Current wind speed in m/s (hover to see current wind gust speed)